Flag for Australia Weather past 2 weeks in Canberra, Australian Capital Territory, Australia

Now
50 °F

Passing clouds.


Feels Like: 46 °F
Forecast: 47 / 64 °F
Wind: 9 mph from Southeast

Location: Canberra Airport

Current Time: Oct 21, 2014 at 5:51:50 AM

Latest Report: Oct 21, 2014 at 5:00 AM


Visibility: N/A

Pressure: 30.42 "Hg

Humidity: 82%

Dew point: 45 °F

Location of CanberraLocation

Historic Weather in Canberra — Graph

°F

Canberra temperature yesterday

Maximum temperature yesterday: 63 °F (at 11:30 AM)
Minimum temperature yesterday: 48 °F (at 5:00 AM)
Average temperature yesterday: 54 °F

Past Weeks' High & Low Weather Summary

 TemperatureHumidityPressure
High82 °F (Oct 6, 3:00 PM)100% (Oct 6, 4:00 AM)30.48 "Hg (Oct 6, 4:00 AM)
Low32 °F (Oct 16, 6:30 AM)18% (Oct 11, 3:30 PM)29.65 "Hg (Oct 7, 4:56 AM)
Average55 °F67%30.07 "Hg
* Reported Oct 6 4:00 AM — Oct 21 4:30 AM, Canberra, Weather by CustomWeather, © 2014

Note: Actual official high and low records may vary slightly from our data, if they occured in-between our weather recording intervals... More about our weather records

Advertising

Canberra weather history for previous 24 hours

 ConditionsComfort  
Time TempWeatherWind HumidityBarometerVisibility
4:30 AM
Oct 21
50 °FPassing clouds.9 mph82%30.42 "HgN/A
4:00 AM50 °FOvercast.9 mph76%30.45 "HgN/A
3:30 AM50 °FMostly cloudy.10 mph76%30.45 "HgN/A
3:00 AM50 °FOvercast.8 mph82%30.45 "HgN/A
2:30 AM50 °FOvercast.7 mph82%30.45 "HgN/A
2:00 AM50 °FOvercast.9 mph82%30.45 "HgN/A
1:30 AM50 °FOvercast.8 mph82%30.45 "HgN/A
1:00 AM50 °FOvercast.8 mph82%30.45 "HgN/A
12:30 AM50 °FMostly cloudy.8 mph82%30.48 "HgN/A
12:00 AM50 °FOvercast.8 mph82%30.48 "HgN/A
11:30 PM
Oct 20
50 °FOvercast.9 mph82%30.48 "HgN/A
11:00 PM50 °FOvercast.10 mph82%30.48 "HgN/A
10:30 PM50 °FOvercast.12 mph82%30.45 "HgN/A
10:00 PM52 °FOvercast.10 mph77%30.45 "HgN/A
9:30 PM52 °FOvercast.12 mph77%30.45 "HgN/A
9:00 PM52 °FOvercast.10 mph77%30.45 "HgN/A
8:30 PM52 °FPassing clouds.8 mph77%30.45 "HgN/A
8:00 PM52 °FPassing clouds.10 mph77%30.42 "HgN/A
7:30 PM52 °FPassing clouds.9 mph77%30.42 "HgN/A
7:00 PM54 °FPartly sunny.9 mph72%30.42 "HgN/A
6:30 PM54 °FPartly sunny.13 mph77%30.42 "HgN/A
6:00 PM54 °FBroken clouds.13 mph77%30.39 "HgN/A
5:30 PM55 °FBroken clouds.13 mph72%30.39 "HgN/A
5:00 PM55 °FBroken clouds.13 mph72%30.39 "HgN/A
4:30 PM55 °FBroken clouds.15 mph72%30.39 "HgN/A
4:00 PM57 °FBroken clouds.15 mph72%30.39 "HgN/A
2:00 PM59 °FPartly sunny.15 mph68%30.39 "HgN/A
1:30 PM61 °FPartly sunny.15 mph63%30.39 "HgN/A
1:00 PM61 °FPartly sunny.15 mph68%30.39 "HgN/A
12:30 PM61 °FPartly sunny.15 mph63%30.39 "HgN/A
12:00 PM59 °FBroken clouds.16 mph77%30.39 "HgN/A
11:30 AM63 °FBroken clouds.12 mph68%30.39 "HgN/A
11:00 AM61 °FBroken clouds.12 mph72%30.39 "HgN/A
10:30 AM61 °FPartly sunny.10 mph72%30.39 "HgN/A
10:00 AM61 °FPartly sunny.10 mph72%30.39 "HgN/A
9:30 AM61 °FScattered clouds.10 mph72%30.39 "HgN/A
9:00 AM61 °FBroken clouds.10 mph68%30.36 "HgN/A
8:30 AM61 °FPartly sunny.7 mph63%30.36 "HgN/A
8:00 AM59 °FSunny.8 mph68%30.33 "Hg10 mi
7:30 AM57 °FSunny.10 mph72%30.33 "Hg10 mi
7:00 AM54 °FSunny.7 mph82%30.30 "Hg10 mi
6:30 AM52 °FSunny.8 mph88%30.27 "Hg10 mi
6:00 AM48 °FClear.6 mph94%30.27 "Hg10 mi
5:30 AM48 °FClear.No wind82%30.24 "Hg10 mi
5:00 AM48 °FClear.6 mph87%30.24 "Hg10 mi
Weather by CustomWeather, © 2014

See weather overviewHow to use our weather pages